TimeEST,TemperatureF,Dew PointF,Humidity,Sea Level PressureIn,VisibilityMPH,Wind Direction,Wind SpeedMPH,Gust SpeedMPH,PrecipitationIn,Events,Conditions,WindDirDegrees,DateUTC
12:53 AM,37.0,24.1,59,30.26,10.0,WSW,8.1,-,N/A,,Overcast,250,2013-12-26 05:53:00
1:53 AM,37.0,25.0,62,30.26,10.0,West,9.2,-,N/A,,Overcast,270,2013-12-26 06:53:00
2:05 AM,37.4,24.8,60,30.25,10.0,West,8.1,-,N/A,,Overcast,260,2013-12-26 07:05:00
2:53 AM,36.0,26.1,67,30.27,10.0,West,8.1,-,N/A,,Overcast,260,2013-12-26 07:53:00
3:53 AM,35.1,26.1,70,30.29,10.0,West,15.0,20.7,N/A,,Overcast,270,2013-12-26 08:53:00
4:53 AM,35.1,26.1,70,30.30,10.0,West,9.2,19.6,N/A,,Overcast,280,2013-12-26 09:53:00
5:53 AM,32.0,25.0,75,30.32,10.0,West,8.1,-,N/A,,Mostly Cloudy,280,2013-12-26 10:53:00
6:01 AM,33.8,24.8,70,30.32,10.0,West,8.1,-,N/A,,Scattered Clouds,270,2013-12-26 11:01:00
6:53 AM,32.0,24.1,73,30.35,10.0,WSW,4.6,-,N/A,,Clear,250,2013-12-26 11:53:00
7:38 AM,32.0,24.8,75,30.35,10.0,WSW,3.5,-,N/A,,Mostly Cloudy,250,2013-12-26 12:38:00
7:53 AM,32.0,25.0,75,30.37,10.0,SW,4.6,-,N/A,,Overcast,230,2013-12-26 12:53:00
8:27 AM,32.0,24.8,75,30.37,10.0,SW,4.6,-,N/A,,Overcast,230,2013-12-26 13:27:00
8:53 AM,33.1,25.0,72,30.40,10.0,SW,4.6,-,N/A,,Overcast,230,2013-12-26 13:53:00
9:53 AM,34.0,25.0,70,30.42,10.0,WNW,5.8,-,N/A,,Overcast,300,2013-12-26 14:53:00
10:53 AM,34.0,25.0,70,30.43,10.0,WSW,5.8,-,N/A,,Mostly Cloudy,240,2013-12-26 15:53:00
11:10 AM,35.6,24.8,65,30.42,10.0,West,3.5,-,N/A,,Partly Cloudy,270,2013-12-26 16:10:00
11:53 AM,37.0,25.0,62,30.42,10.0,SSW,3.5,-,N/A,,Clear,200,2013-12-26 16:53:00
12:53 PM,39.0,24.1,55,30.39,10.0,WSW,4.6,-,N/A,,Clear,240,2013-12-26 17:53:00
1:53 PM,41.0,24.1,51,30.38,10.0,Variable,3.5,-,N/A,,Clear,0,2013-12-26 18:53:00
2:53 PM,41.0,23.0,49,30.38,10.0,Variable,4.6,-,N/A,,Clear,0,2013-12-26 19:53:00
3:53 PM,42.1,23.0,47,30.37,10.0,Calm,Calm,-,N/A,,Clear,0,2013-12-26 20:53:00
4:53 PM,41.0,23.0,49,30.38,10.0,West,6.9,-,N/A,,Clear,260,2013-12-26 21:53:00
5:53 PM,39.9,21.9,49,30.39,10.0,WSW,3.5,-,N/A,,Clear,240,2013-12-26 22:53:00
6:53 PM,37.9,23.0,55,30.39,10.0,Calm,Calm,-,N/A,,Clear,0,2013-12-26 23:53:00
7:53 PM,36.0,24.1,62,30.39,10.0,Calm,Calm,-,N/A,,Clear,0,2013-12-27 00:53:00
8:53 PM,34.0,24.1,67,30.38,10.0,Calm,Calm,-,N/A,,Clear,0,2013-12-27 01:53:00
9:53 PM,34.0,23.0,64,30.39,10.0,Calm,Calm,-,N/A,,Clear,0,2013-12-27 02:53:00
10:53 PM,33.1,23.0,66,30.39,10.0,Calm,Calm,-,N/A,,Clear,0,2013-12-27 03:53:00
11:53 PM,33.1,23.0,66,30.39,10.0,SSE,3.5,-,N/A,,Clear,160,2013-12-27 04:53:00